{"data":{"norad_id":52301,"epoch":"2026-09-19T16:58:17.571648Z","epoch_age_seconds":128075,"freshness":"FRESH","line1":"1 52301U 22041AS  26262.70714782 -.00000312  00000+0  18522-5 0  9993","line2":"2 52301  53.1601 295.7170 0001234  73.2215 286.8923 15.33548570243963","mean_motion":15.3354857,"eccentricity":0.0001234,"inclination_deg":53.1601,"raan_deg":295.717,"arg_perigee_deg":73.2215,"mean_anomaly_deg":286.8923,"bstar":1.8522e-6,"rev_number":24396,"period_min":93.899862591245,"perigee_km":464.39056825898,"apogee_km":466.07951247855,"semimajor_km":6843.3720403688,"source":"CELESTRAK","updated_at":"2026-09-20T09:00:40.018309Z"}}